TimeEST,TemperatureF,Dew PointF,Humidity,Sea Level PressureIn,VisibilityMPH,Wind Direction,Wind SpeedMPH,Gust SpeedMPH,PrecipitationIn,Events,Conditions,WindDirDegrees,DateUTC
12:53 AM,32.0,25.0,75,30.34,10.0,WSW,8.1,-,N/A,,Overcast,240,2012-11-13 05:53:00
1:53 AM,32.0,26.1,79,30.35,10.0,SW,9.2,-,N/A,,Overcast,220,2012-11-13 06:53:00
2:53 AM,32.0,26.1,79,30.36,10.0,SW,9.2,-,N/A,,Overcast,220,2012-11-13 07:53:00
3:53 AM,32.0,26.1,79,30.36,10.0,SW,9.2,-,N/A,,Overcast,220,2012-11-13 08:53:00
4:53 AM,32.0,26.1,79,30.36,10.0,SW,6.9,-,N/A,,Overcast,220,2012-11-13 09:53:00
5:53 AM,32.0,27.0,82,30.38,10.0,SW,6.9,-,N/A,,Overcast,220,2012-11-13 10:53:00
6:53 AM,30.0,26.1,85,30.40,10.0,SSW,5.8,-,N/A,,Overcast,200,2012-11-13 11:53:00
7:53 AM,30.0,26.1,85,30.43,10.0,SW,6.9,-,N/A,,Overcast,220,2012-11-13 12:53:00
8:53 AM,32.0,26.1,79,30.45,10.0,WSW,9.2,-,N/A,,Overcast,250,2012-11-13 13:53:00
9:53 AM,33.1,27.0,78,30.47,10.0,WSW,9.2,-,N/A,,Overcast,250,2012-11-13 14:53:00
10:53 AM,33.1,27.0,78,30.48,10.0,WSW,8.1,-,N/A,,Overcast,250,2012-11-13 15:53:00
11:53 AM,35.1,28.9,78,30.48,10.0,West,5.8,-,N/A,,Overcast,270,2012-11-13 16:53:00
12:53 PM,36.0,26.1,67,30.46,10.0,West,4.6,-,N/A,,Overcast,270,2012-11-13 17:53:00
1:06 PM,35.6,26.6,70,30.45,10.0,WSW,5.8,-,N/A,,Overcast,250,2012-11-13 18:06:00
1:53 PM,35.1,27.0,72,30.46,10.0,West,6.9,-,N/A,,Overcast,280,2012-11-13 18:53:00
2:53 PM,36.0,25.0,64,30.46,10.0,Variable,3.5,-,N/A,,Overcast,0,2012-11-13 19:53:00
3:53 PM,36.0,24.1,62,30.47,10.0,West,4.6,-,N/A,,Overcast,260,2012-11-13 20:53:00
4:53 PM,36.0,25.0,64,30.48,10.0,Calm,Calm,-,N/A,,Overcast,0,2012-11-13 21:53:00
5:53 PM,35.1,27.0,72,30.48,10.0,Calm,Calm,-,N/A,,Overcast,0,2012-11-13 22:53:00
6:53 PM,34.0,28.0,79,30.50,10.0,Calm,Calm,-,N/A,,Overcast,0,2012-11-13 23:53:00
7:53 PM,34.0,27.0,75,30.51,10.0,WNW,4.6,-,0.00,Snow,Light Snow,290,2012-11-14 00:53:00
8:53 PM,34.0,25.0,70,30.53,10.0,North,6.9,-,0.00,,Overcast,360,2012-11-14 01:53:00
9:53 PM,32.0,24.1,73,30.53,10.0,North,6.9,-,N/A,,Clear,10,2012-11-14 02:53:00
10:53 PM,30.9,24.1,76,30.54,10.0,NE,4.6,-,N/A,,Clear,40,2012-11-14 03:53:00
11:53 PM,30.9,24.1,76,30.53,10.0,Calm,Calm,-,N/A,,Clear,0,2012-11-14 04:53:00